Wind_Speed
36 35 34 34 33 33 32 32 31 30 29 29 28 28 28 28 28 28 28 28 28 27 26 25 26 27 28 30 33 35 35 34 33 33 35 36 35 33 33 33 34 34 34 34 34 35 36 36 35 34 33 32 31 31 31 31 32 32 32 32 30 30 30 30 31 31 31 30 28
37 36 35 35 34 33 32 31 31 30 30 29 29 29 29 29 28 28 28 29 28 27 26 25 26 27 29 30 32 34 35 34 33 33 35 36 35 34 33 33 34 34 34 34 34 35 35 35 35 34 33 32 31 31 30 31 32 32 33 33 31 30 30 30 31 31 31 31 29
37 37 36 35 34 33 32 31 31 30 30 29 29 29 29 29 29 29 29 29 29 28 27 26 26 27 29 30 33 34 35 35 33 33 34 36 35 34 33 32 33 34 34 34 35 35 35 35 34 33 32 32 31 31 31 31 32 32 33 34 32 31 30 30 31 31 31 30 29
37 36 36 35 35 35 33 32 32 31 31 30 29 29 30 29 29 29 29 29 29 29 28 27 26 27 29 30 32 34 35 35 35 33 33 34 34 34 33 32 34 34 34 34 35 34 34 35 34 33 32 31 31 31 31 31 32 32 33 34 33 32 31 30 30 30 30 30 29
33 35 36 36 36 37 36 34 33 33 32 30 29 29 29 30 29 29 29 29 29 29 29 28 27 27 28 30 32 34 35 36 36 35 34 34 33 33 32 32 33 35 35 35 35 35 34 35 33 32 31 31 31 31 31 31 31 32 32 32 32 31 30 29 29 29 29 29 29
24 28 32 35 37 37 36 35 35 34 33 31 30 29 29 29 29 30 30 30 30 30 30 29 28 28 28 30 32 34 35 36 37 37 36 35 34 33 32 32 34 35 35 35 35 35 35 35 33 31 31 31 30 30 31 30 30 30 30 30 30 31 30 28 28 28 29 29 29
22 21 23 28 33 36 36 35 35 34 33 31 30 30 30 30 30 31 31 31 31 31 30 29 29 28 28 30 31 33 34 35 36 37 37 38 38 37 35 33 34 35 35 35 35 35 35 35 32 30 31 31 30 30 30 30 30 30 29 28 28 30 30 28 29 29 29 29 30
26 26 24 23 26 31 35 35 35 34 33 31 31 31 31 31 31 32 32 31 31 31 31 30 30 29 29 30 31 32 33 33 33 33 35 37 38 38 37 35 35 34 34 34 35 35 35 35 32 30 30 30 30 30 30 31 31 30 29 28 27 28 29 30 30 30 30 30 30
26 29 30 28 25 26 30 34 34 34 33 32 31 31 31 31 32 32 32 31 31 31 31 30 30 30 30 30 31 32 33 33 31 31 31 34 36 38 38 36 36 35 34 33 34 35 34 33 32 30 29 30 30 30 30 32 32 31 29 28 27 28 29 30 30 30 30 30 30
25 26 28 28 28 26 26 30 33 33 33 32 31 30 30 31 31 32 31 31 31 31 31 31 31 31 30 30 31 33 33 32 31 30 30 31 33 35 36 36 36 35 33 33 34 35 34 33 31 30 30 30 30 30 29 31 32 31 30 29 28 28 28 29 30 30 31 31 30
26 25 25 25 25 26 27 27 28 31 31 31 30 29 29 30 31 31 31 30 30 31 31 31 32 32 31 30 31 33 33 33 32 31 30 31 32 33 33 33 34 34 33 33 34 34 34 32 31 30 30 30 30 29 29 30 32 32 31 30 29 29 29 29 29 29 30 31 31
26 26 24 22 22 24 26 27 26 27 28 29 28 28 28 29 30 30 30 29 30 31 31 31 32 32 32 30 31 32 33 33 33 33 32 32 32 32 32 32 32 33 33 34 34 34 33 32 31 31 31 31 30 29 29 30 31 32 32 31 30 30 30 30 29 28 29 30 29
26 26 24 22 20 21 23 26 26 25 26 27 26 27 27 29 30 30 29 29 30 30 30 30 31 32 32 30 31 33 33 34 34 34 34 33 33 33 33 32 32 33 33 34 35 34 33 32 32 31 31 31 30 29 29 30 30 31 31 31 31 31 31 31 30 28 28 28 28
27 26 25 22 20 20 21 23 25 25 25 25 25 26 27 28 29 29 29 29 30 29 29 29 30 31 30 30 32 33 34 33 34 34 35 34 35 35 35 34 33 33 34 34 35 35 34 33 33 32 32 32 31 30 30 30 30 30 30 30 30 31 32 32 31 29 28 28 28
28 28 27 23 19 18 20 21 24 25 25 24 24 25 26 27 29 29 29 29 29 29 29 28 29 28 29 30 32 34 34 34 34 34 34 34 35 36 36 35 34 34 34 34 35 35 35 34 33 33 32 32 31 31 30 30 30 30 30 30 31 31 31 32 32 30 29 29 28
28 29 28 24 20 17 18 20 22 26 26 24 24 25 26 27 28 29 29 28 28 28 28 29 28 27 26 28 31 33 34 34 34 34 34 34 35 36 36 35 34 34 34 34 34 35 35 34 33 33 33 32 31 31 31 31 31 31 30 30 30 30 30 31 31 31 31 30 30
28 28 28 25 22 19 18 19 22 26 28 26 24 25 26 27 28 29 29 28 27 27 27 29 29 27 25 27 29 31 32 34 34 35 35 34 35 36 36 35 34 34 34 34 34 34 34 33 33 33 33 32 32 31 31 32 32 32 31 31 30 30 30 30 31 31 32 31 31
28 28 28 26 23 21 20 21 23 26 29 28 25 26 27 27 28 29 29 28 27 27 28 29 29 27 26 26 28 30 31 32 34 35 36 35 35 35 35 35 34 33 33 34 34 33 33 33 32 32 32 32 32 32 32 32 33 33 32 32 31 30 29 29 30 30 31 31 32
27 27 28 27 25 23 21 22 23 26 29 30 27 26 27 27 28 28 28 28 27 27 28 29 28 27 26 26 27 29 30 31 33 35 35 35 35 35 35 35 34 33 33 34 34 34 33 33 33 32 32 32 32 32 32 33 33 33 33 32 31 30 29 29 29 29 30 31 31
26 26 27 27 27 24 22 21 23 27 29 30 28 26 26 27 28 28 27 26 26 27 27 28 28 27 26 26 27 29 30 30 31 32 33 34 35 35 36 36 34 33 33 33 33 34 34 34 34 33 33 33 33 33 32 32 32 32 32 31 31 30 30 30 30 30 29 29 30
26 26 26 27 27 25 22 21 21 23 27 28 27 25 25 26 27 27 27 26 25 26 27 28 28 27 25 25 27 28 29 29 29 30 30 33 35 36 37 37 35 34 33 33 33 34 34 34 34 34 33 33 33 33 32 32 31 30 30 29 30 30 31 31 31 30 30 30 29
27 27 28 28 27 26 24 21 20 21 24 26 26 24 24 25 26 27 26 26 26 26 27 28 28 27 26 25 27 28 29 28 29 29 29 31 34 36 37 37 35 34 33 33 33 33 33 34 34 34 33 32 32 32 32 30 29 29 29 28 29 29 30 31 31 31 31 31 30
29 29 29 28 27 26 23 20 20 23 26 28 26 24 24 25 25 26 26 26 26 27 28 29 29 28 27 26 26 28 28 29 30 29 27 27 29 32 33 34 33 33 33 33 32 32 32 33 33 33 32 31 31 31 30 30 29 29 29 28 28 28 29 30 31 31 31 31 30
30 31 30 28 27 25 22 19 21 25 28 29 27 24 23 24 25 26 26 26 27 28 28 28 29 29 28 26 25 26 28 30 30 28 25 23 23 26 29 31 32 32 32 32 32 32 32 32 32 32 31 30 30 29 29 29 29 29 29 28 28 28 28 28 29 29 29 28 27
31 31 30 28 26 24 22 19 22 26 28 29 27 23 22 23 26 26 27 27 27 28 28 27 28 30 29 27 25 25 27 29 28 26 24 22 21 23 27 30 32 32 32 32 32 33 33 32 31 30 30 29 29 29 29 29 30 29 29 28 28 27 26 25 25 26 25 25 24
31 31 30 28 25 24 21 19 22 25 28 29 27 23 22 24 26 27 28 28 27 27 27 27 27 28 28 27 25 24 25 26 24 23 23 23 22 23 26 29 31 31 32 32 33 34 34 33 32 31 30 29 29 28 28 28 28 28 28 27 26 25 23 22 22 22 22 22 22
31 30 29 28 25 23 21 19 20 22 26 28 28 25 23 24 26 28 28 28 27 27 26 25 24 25 26 26 25 23 22 22 22 22 22 23 22 23 25 26 28 29 31 34 34 34 34 33 33 32 30 29 28 27 25 24 24 25 24 24 24 24 23 22 21 21 21 21 21
30 30 29 28 25 22 21 20 20 22 25 27 29 26 24 24 26 27 28 28 28 27 26 24 23 23 23 22 23 22 21 20 21 21 22 23 22 22 22 23 24 27 30 33 34 34 34 33 32 30 28 25 23 22 20 19 19 18 17 17 17 17 17 18 19 20 21 21 21
29 29 29 28 25 23 21 20 19 21 25 28 31 28 24 24 26 27 27 28 28 27 26 24 23 21 20 19 20 21 21 21 21 22 22 21 19 19 19 21 23 25 27 29 30 31 31 30 29 26 23 20 19 18 17 17 16 15 13 11 10 10 10 10 11 13 16 19 21
28 29 29 28 26 24 22 20 18 20 24 28 31 29 24 24 25 26 27 27 28 27 26 24 22 19 17 18 19 20 21 22 21 21 19 17 16 16 18 21 23 23 23 24 25 26 26 25 24 23 21 19 19 19 19 19 18 17 15 14 13 12 10 9 7 7 10 13 15
28 28 28 29 27 25 23 22 20 20 22 26 29 28 24 23 24 25 26 27 26 26 25 23 20 18 18 19 19 20 21 20 19 17 16 15 16 17 19 22 23 23 22 23 23 23 23 23 23 23 22 21 20 21 21 21 20 19 18 17 15 13 12 10 9 8 8 10 12
28 27 27 28 28 26 24 23 23 23 24 26 28 28 24 22 24 25 25 25 24 23 22 20 19 18 18 18 19 19 18 17 17 17 17 17 18 19 21 22 23 23 23 23 23 23 24 24 25 25 24 23 22 23 23 22 22 21 20 19 17 16 15 14 14 14 14 14 16
27 27 26 27 27 27 25 23 23 24 26 27 29 30 26 22 22 22 21 19 18 16 15 16 17 15 14 16 19 21 21 21 21 21 21 22 23 24 24 25 25 25 26 26 26 26 27 27 27 27 27 25 25 24 24 24 24 23 22 22 21 20 19 19 18 18 18 19 20
27 26 26 26 27 26 25 22 22 24 26 28 29 29 26 20 17 15 14 13 13 13 13 15 17 19 22 24 27 27 26 26 25 25 25 26 27 28 28 28 28 28 29 29 29 29 30 30 30 29 29 28 27 26 26 27 26 26 26 25 24 23 21 20 20 20 20 21 22
27 26 25 25 26 26 25 23 22 24 25 27 30 27 20 14 13 14 15 18 21 22 23 25 27 29 30 30 30 30 30 29 28 27 27 28 30 31 31 30 30 30 31 32 32 32 32 31 31 31 31 31 30 30 30 30 30 29 29 28 27 25 24 23 22 22 22 23 23
28 26 25 25 25 25 24 22 22 22 23 23 26 20 9 13 18 21 24 28 29 30 30 31 32 33 34 34 32 31 30 30 30 30 30 31 33 34 34 31 30 31 32 33 34 33 33 33 33 33 33 33 33 32 32 32 32 32 32 31 31 31 30 28 27 27 26 25 25
28 27 25 25 25 24 23 21 21 21 21 17 13 9 13 20 24 27 30 32 32 32 32 31 32 34 36 35 33 31 30 30 31 31 32 33 35 35 34 31 30 31 32 34 35 35 35 34 34 34 33 34 34 34 34 33 33 34 34 34 34 34 34 32 31 30 29 28 27
28 26 24 24 24 23 22 20 20 17 12 8 13 18 21 24 27 30 33 36 35 34 32 32 34 36 38 37 35 32 31 30 31 31 32 32 33 34 34 32 30 30 31 33 34 35 35 35 34 34 34 35 35 35 34 34 33 34 34 34 34 35 34 34 33 32 32 31 30
27 25 22 22 21 21 21 18 10 2 12 19 22 22 23 24 26 28 31 35 37 36 34 34 36 38 40 40 38 36 34 33 32 32 32 31 32 33 34 33 32 31 31 32 34 35 35 35 35 35 36 37 37 36 36 35 35 34 34 34 34 34 34 35 34 34 34 33 32
25 22 19 18 18 19 18 11 6 18 25 26 25 24 23 23 23 25 29 33 37 37 37 38 40 41 42 43 41 39 37 36 35 34 34 33 33 34 35 34 33 31 31 32 33 34 35 36 36 36 36 37 38 38 37 36 36 35 33 33 33 33 33 34 34 34 34 34 33
24 19 15 15 16 15 9 8 20 26 27 27 27 26 25 24 23 23 26 31 34 37 38 40 42 43 44 43 42 41 40 38 36 35 35 35 35 35 35 34 33 32 31 31 32 34 35 35 36 37 37 37 38 38 38 37 35 34 32 31 32 32 32 32 33 34 34 34 33
Wind_Direction
208 207 206 206 206 206 207 208 209 208 206 203 200 199 197 196 196 197 197 198 199 199 199 198 199 199 198 197 196 196 198 201 204 204 201 197 194 191 189 188 188 187 187 186 188 189 190 192 194 195 196 197 198 197 197 197 197 197 197 198 198 198 198 198 199 199 199 198 197
207 206 206 205 205 205 206 208 208 208 206 204 201 199 197 196 196 196 197 197 198 199 198 198 198 198 197 196 196 196 196 199 203 203 200 197 194 191 189 188 188 187 187 187 187 188 189 190 192 193 195 197 198 198 198 199 198 198 198 199 200 200 200 200 200 200 198 198 196
207 206 205 204 204 204 205 206 207 207 206 204 201 199 197 196 196 196 197 198 198 198 198 197 197 196 196 195 196 196 197 198 202 202 200 196 193 191 189 187 187 187 187 187 188 188 188 189 191 192 194 196 197 198 198 199 200 199 199 200 200 200 200 200 200 199 197 196 194
206 205 204 203 202 202 203 205 206 206 205 203 201 199 197 196 196 196 196 197 197 197 197 197 196 195 195 195 195 196 197 198 201 202 200 196 193 191 189 187 186 187 188 189 189 189 189 189 191 192 194 195 196 197 198 199 199 200 200 200 200 200 199 199 198 197 195 194 194
209 206 204 203 202 202 203 204 204 204 204 202 199 197 196 195 195 195 195 195 195 196 196 196 195 194 194 195 195 195 197 198 200 202 201 198 194 191 189 187 186 187 189 190 190 190 190 190 191 193 194 196 196 197 197 198 198 198 199 199 200 199 199 197 196 195 194 194 194
228 215 208 205 203 202 203 203 203 203 203 201 199 197 195 194 194 193 193 194 195 195 195 194 192 191 191 192 194 195 196 198 199 200 200 198 196 192 189 187 187 187 188 188 189 189 189 189 190 193 195 196 199 200 199 197 197 197 197 197 198 199 198 196 195 194 194 194 195
272 256 233 216 207 204 202 203 203 202 202 200 199 197 195 193 193 192 193 193 194 194 193 192 190 188 187 189 192 194 195 197 198 198 197 195 193 194 194 190 188 187 186 186 187 187 188 189 189 191 194 196 198 200 201 199 197 196 196 196 197 198 198 197 197 196 195 196 196
286 287 280 258 229 212 205 203 202 201 200 200 199 197 195 193 192 192 192 192 191 191 190 189 189 187 186 187 189 191 194 195 195 194 192 190 188 189 191 191 189 187 186 186 185 186 186 188 188 190 192 195 196 198 200 200 199 198 198 197 198 198 198 199 200 199 198 198 197
294 290 290 287 267 237 216 206 202 200 200 199 199 198 196 193 191 190 190 189 190 189 188 188 187 186 185 185 187 189 192 193 193 191 189 187 186 185 186 186 186 186 186 185 185 185 186 186 188 189 191 194 196 198 200 201 200 200 200 200 199 199 200 201 201 201 201 200 198
312 299 292 291 285 268 241 217 206 201 199 199 199 197 195 192 190 189 188 188 188 188 188 187 186 185 184 185 185 187 190 192 192 191 188 186 184 183 182 183 184 185 185 185 185 185 186 186 188 189 191 194 196 198 200 200 200 201 202 202 202 201 201 202 202 202 201 201 199
323 312 301 291 285 278 264 241 219 206 201 199 197 196 194 191 189 188 187 186 186 186 187 187 186 185 184 184 184 185 188 190 191 191 189 187 185 184 183 183 184 184 184 184 185 186 186 187 188 189 191 193 195 196 198 199 200 201 202 203 204 204 204 203 202 201 201 202 201
326 318 308 293 281 275 271 261 239 218 205 200 196 194 191 189 188 186 184 184 185 186 187 187 186 186 185 184 184 184 186 188 189 190 190 189 188 186 185 184 185 185 185 185 186 186 187 188 189 189 191 194 194 194 196 198 199 200 202 204 205 205 205 205 204 202 202 202 202
326 321 313 300 284 275 272 267 254 234 214 202 195 191 189 188 186 184 183 183 185 186 187 186 187 187 186 184 183 183 185 187 188 189 189 190 190 190 188 188 187 187 187 187 187 188 188 190 190 190 190 192 193 194 195 198 198 200 201 203 204 205 205 205 204 203 203 204 205
326 324 318 308 292 279 272 267 260 245 225 206 195 190 187 186 185 183 182 183 184 185 186 186 187 187 186 185 184 184 185 186 187 188 189 190 191 191 191 190 189 188 188 188 189 189 190 191 191 191 191 190 191 193 195 198 199 200 201 202 203 203 204 205 204 205 205 206 208
327 326 323 315 300 281 270 268 261 250 236 215 198 189 185 183 183 183 183 184 184 185 185 184 186 188 188 186 185 185 186 186 187 188 189 189 190 190 190 190 189 188 187 187 188 189 190 191 192 192 191 191 191 193 195 198 201 202 203 202 202 202 203 204 205 206 207 208 210
328 327 325 319 306 284 267 262 256 251 242 225 202 189 184 182 181 182 183 183 184 185 184 184 185 186 187 186 186 185 186 187 188 189 189 188 189 189 188 188 187 186 186 186 187 189 190 191 192 192 192 192 192 194 196 199 203 205 204 203 202 202 202 203 205 207 209 210 211
327 328 326 321 309 289 268 257 252 249 244 233 209 191 184 181 180 181 182 183 183 183 183 184 184 184 184 184 184 184 185 187 188 189 189 188 187 187 186 185 185 184 185 185 186 188 189 191 192 192 193 193 194 196 198 201 204 205 205 204 202 201 202 203 205 207 209 211 213
327 327 326 323 312 295 274 257 250 247 244 237 215 195 185 181 180 180 182 182 182 182 183 183 183 183 184 183 183 184 185 186 188 188 188 187 186 186 185 185 185 185 185 186 187 188 189 191 192 193 194 195 197 199 200 202 204 204 204 204 203 202 202 203 205 207 209 210 212
325 325 325 323 315 302 283 265 255 250 246 238 220 200 187 181 179 179 180 181 181 182 182 182 182 184 185 186 186 186 186 187 187 187 186 185 185 186 187 187 187 186 186 187 188 190 191 193 194 195 196 197 198 200 201 202 202 203 203 203 204 204 205 206 207 208 209 211 212
323 323 322 321 316 307 293 277 263 255 249 240 223 203 188 181 178 177 177 178 180 180 180 180 182 184 186 188 189 189 188 188 188 188 187 186 185 186 188 188 187 186 186 187 190 192 194 195 195 196 197 197 198 199 199 199 200 201 202 203 205 207 209 210 210 211 212 213 213
321 320 319 318 315 309 298 284 270 261 254 245 227 207 189 180 176 175 175 176 177 178 179 180 182 184 186 189 190 190 190 189 189 190 191 188 187 187 188 188 186 186 187 189 192 194 195 195 196 196 196 195 196 197 197 197 197 199 201 204 206 209 211 213 214 215 215 216 216
319 317 316 315 313 309 300 286 274 267 262 253 234 212 192 181 175 173 174 174 175 177 179 182 183 185 187 189 190 190 189 188 188 189 190 187 186 186 187 186 185 186 188 191 194 195 195 195 194 193 192 192 193 194 194 194 195 198 201 205 208 211 213 215 216 217 218 218 218
317 315 314 313 312 309 301 285 270 263 262 257 240 216 193 179 174 172 173 174 176 178 181 184 186 188 189 189 189 188 187 185 186 187 188 186 185 185 186 186 186 187 190 192 193 193 193 191 190 189 188 188 190 191 192 194 196 199 202 205 208 211 213 215 217 217 218 218 217
315 313 312 311 310 307 299 279 262 256 256 254 242 219 192 176 173 172 173 175 178 180 182 186 189 192 192 190 189 188 185 183 184 188 193 194 190 188 187 187 188 189 190 191 192 191 189 186 184 184 185 186 189 191 194 197 199 201 203 205 207 209 211 213 214 215 215 214 214
313 312 311 309 307 305 297 275 257 253 253 252 242 221 193 175 173 174 175 176 179 181 184 188 192 194 194 192 191 189 186 184 185 190 197 201 197 189 186 186 188 189 190 190 190 188 186 184 182 182 185 187 191 194 197 199 201 203 204 205 205 206 206 207 208 209 210 210 211
312 311 310 308 305 302 294 276 258 252 253 253 245 225 197 176 174 176 177 177 179 182 185 189 192 194 194 193 193 192 190 188 189 193 198 201 195 186 181 182 184 186 188 188 188 187 186 186 186 187 188 191 193 195 197 199 200 201 202 202 201 201 200 201 203 205 208 211 213
311 310 309 307 304 299 292 280 265 258 257 257 250 230 201 179 176 177 178 179 179 181 184 188 190 190 191 192 193 194 193 190 192 195 196 195 188 182 179 179 180 183 185 188 188 188 189 190 190 190 190 191 191 191 191 192 194 195 196 196 198 200 201 201 204 206 210 213 216
311 310 308 306 302 297 292 285 274 264 260 259 254 236 207 182 177 178 180 180 180 181 183 185 186 186 188 191 194 196 196 191 191 190 189 187 184 183 183 182 179 179 182 186 187 188 189 189 188 187 186 186 186 185 182 180 179 179 180 183 188 193 196 199 204 209 213 216 218
310 310 309 305 299 295 293 289 276 263 258 258 257 244 217 188 178 177 179 180 181 182 183 184 183 185 191 197 200 199 195 190 185 180 179 180 184 186 186 182 178 177 179 182 183 184 183 182 181 179 175 170 163 157 153 151 147 143 139 138 141 148 158 172 188 202 210 214 217
311 311 309 306 300 294 290 287 282 269 260 257 258 250 227 194 179 176 179 180 182 183 185 185 187 192 201 208 204 197 190 184 178 173 173 178 178 177 174 172 173 174 175 177 178 178 177 175 174 172 169 161 149 142 138 137 132 125 116 110 110 115 124 135 148 170 189 199 200
310 310 309 306 301 295 288 284 281 273 263 259 259 253 233 199 179 175 178 180 182 184 185 188 192 201 208 209 198 188 180 176 173 170 169 169 165 160 158 160 164 168 171 172 174 173 172 171 170 169 165 157 144 133 127 124 120 115 109 104 102 104 107 112 119 128 143 156 155
308 308 307 306 303 297 289 282 277 271 266 264 262 255 236 202 178 172 175 178 180 185 190 196 200 206 207 200 186 175 166 158 154 152 151 148 143 139 140 145 150 158 165 169 169 169 168 166 165 163 159 152 139 128 121 118 112 108 104 100 99 99 101 103 106 111 117 125 130
306 305 305 304 302 297 290 281 272 266 263 262 259 251 235 205 180 171 174 179 181 184 190 195 193 187 175 160 151 142 135 136 135 135 135 134 129 126 125 126 133 146 158 164 164 162 160 159 158 156 153 146 136 127 121 116 110 105 101 98 96 96 97 99 101 104 109 116 121
304 302 301 299 298 295 289 280 270 263 258 256 254 247 234 210 184 171 169 167 159 151 144 142 144 135 126 124 123 122 122 125 126 127 127 125 122 119 116 115 120 133 147 156 158 156 154 152 151 149 146 140 131 123 118 113 107 102 98 95 93 93 93 94 96 99 104 110 116
300 298 296 294 292 290 285 278 269 262 257 253 249 247 236 199 165 144 132 126 122 119 117 116 116 114 112 111 113 114 114 115 117 120 122 122 118 114 110 108 112 122 134 144 149 150 149 147 146 144 139 131 123 117 113 108 102 98 96 93 91 89 89 90 92 95 99 104 110
298 293 290 287 285 283 280 274 267 261 255 251 246 244 217 141 133 129 125 122 119 115 112 110 109 107 103 101 102 105 107 108 110 111 112 115 114 111 107 105 106 113 122 130 137 141 143 143 142 139 133 125 118 113 108 104 99 95 93 90 87 86 86 86 87 90 93 97 102
297 291 285 280 278 276 274 271 265 259 252 243 227 187 139 124 124 125 127 126 121 115 111 109 106 102 100 99 99 100 102 106 106 106 107 108 110 109 106 104 103 107 113 120 127 132 135 137 138 136 131 122 115 110 106 101 97 94 90 87 85 84 83 84 84 86 88 92 96
300 293 283 275 271 269 268 267 265 259 241 187 143 131 128 125 122 123 124 124 121 117 112 109 104 102 102 103 101 99 99 101 102 103 103 102 105 107 106 103 101 104 109 114 119 124 128 131 133 132 128 121 115 110 106 101 97 93 90 87 85 83 82 83 83 83 85 89 94
306 298 287 275 266 262 261 263 268 172 120 120 121 121 119 118 118 119 120 121 120 118 113 108 104 103 104 104 101 96 92 92 95 97 98 98 100 103 104 102 100 102 106 111 115 118 122 125 126 127 125 121 116 111 107 103 98 94 91 89 87 84 82 82 83 83 84 87 91
312 303 290 277 265 257 256 258 109 105 111 115 115 112 110 110 113 115 117 117 117 115 111 106 103 103 104 103 101 95 89 87 88 90 93 94 95 98 100 99 99 100 103 107 111 114 116 119 121 122 121 118 114 111 108 105 100 95 93 91 89 87 84 83 83 83 83 85 88
320 306 285 264 254 247 228 125 106 107 110 112 111 111 110 109 110 111 112 113 113 111 107 104 103 103 103 102 100 95 90 86 85 87 89 91 92 93 95 96 97 97 99 103 106 109 112 114 116 117 117 115 113 111 108 106 101 97 95 93 92 90 87 85 84 83 82 83 84
Height
644 646 647 649 650 652 653 654 656 657 658 659 661 662 664 666 667 669 671 672 674 676 678 679 680 682 683 684 685 687 689 691 693 693 694 695 697 698 698 699 701 703 706 708 710 712 714 716 718 720 722 723 725 726 727 728 729 731 732 733 735 736 737 738 739 740 741 743 743
641 642 644 646 647 649 651 652 653 655 656 657 658 659 661 663 664 666 668 670 671 673 675 677 678 679 681 682 683 685 687 689 691 692 693 694 695 696 697 698 699 702 704 706 708 710 712 714 716 718 720 722 723 725 726 727 728 730 731 732 734 735 736 737 738 739 740 741 742
638 639 641 643 644 646 648 649 651 652 653 654 655 657 658 660 662 663 665 667 669 671 673 675 676 677 678 680 682 683 685 687 689 690 691 692 693 694 695 697 698 700 702 705 707 709 711 713 714 716 718 720 722 723 725 726 727 728 730 731 732 734 735 735 736 738 738 739 740
635 637 638 640 641 643 644 646 648 649 650 652 653 654 656 657 659 661 663 665 667 669 670 672 674 675 677 678 679 681 683 685 687 688 689 691 692 693 693 695 696 698 701 703 705 707 709 711 713 715 717 718 720 722 723 725 726 727 728 730 731 732 733 734 735 736 737 738 739
635 635 636 637 638 639 641 643 644 646 648 649 650 652 653 655 657 658 660 662 664 666 667 669 671 673 674 676 678 679 681 683 684 686 688 689 690 691 692 693 694 696 699 702 704 706 708 709 711 713 715 717 718 720 722 723 724 726 727 728 729 730 731 733 733 734 736 737 738
638 637 636 635 635 636 638 639 641 643 645 646 648 649 651 652 654 656 658 659 661 663 665 667 669 670 672 674 676 677 679 681 682 683 685 687 688 690 691 692 693 695 698 700 702 704 706 708 710 712 713 715 718 719 720 722 723 724 726 727 728 729 730 731 732 733 734 735 737
643 642 640 637 635 635 636 637 638 640 642 644 645 646 648 649 651 653 655 657 658 661 663 665 666 668 670 672 673 675 677 678 680 681 682 684 686 688 690 691 693 694 696 698 700 702 704 706 708 710 712 714 716 718 719 721 722 723 724 726 727 728 729 730 731 732 733 734 735
645 644 644 643 639 637 635 635 637 638 640 641 643 644 645 647 649 651 653 655 657 659 660 662 664 665 667 669 671 673 675 677 678 679 680 681 682 684 688 690 692 693 694 696 698 700 702 704 706 708 710 712 714 716 718 719 720 722 723 724 725 727 728 728 730 731 732 733 734
643 643 643 644 644 641 637 635 635 636 638 639 640 642 643 645 647 649 651 653 655 657 658 660 662 663 665 667 668 670 673 675 676 678 678 679 680 682 684 687 689 691 693 694 696 698 700 702 704 706 708 710 712 714 716 718 719 721 722 723 724 725 726 728 728 729 730 731 733
643 642 642 643 644 644 642 637 635 635 636 637 639 640 642 643 645 647 649 651 653 655 657 658 660 662 663 665 666 668 670 673 675 676 677 678 679 681 682 684 687 689 691 693 694 697 698 700 702 704 706 708 710 713 715 716 718 719 721 722 723 724 725 726 727 728 729 730 731
643 642 642 642 642 643 644 642 638 635 635 636 638 639 641 643 644 646 648 650 652 654 655 657 658 660 662 663 664 666 668 670 673 675 676 678 679 680 681 683 684 687 688 691 693 695 697 699 701 703 704 707 709 711 713 714 716 718 719 720 722 723 724 724 725 726 727 728 729
644 643 642 641 642 643 644 644 641 638 636 636 637 638 640 642 643 645 647 649 651 652 654 656 657 658 660 661 662 664 666 668 670 672 674 676 678 679 681 682 683 685 687 689 691 693 695 697 699 701 703 705 708 710 711 713 714 716 718 719 720 721 722 723 724 725 726 727 728
644 643 641 641 641 642 643 644 644 641 638 636 636 637 639 641 642 644 646 648 649 651 653 655 656 657 658 659 661 662 664 666 668 670 672 674 676 678 680 681 683 684 686 688 689 691 693 696 698 699 701 703 706 708 709 711 713 714 716 717 718 719 720 721 723 724 725 726 727
644 642 641 640 640 641 642 643 644 643 640 636 635 636 638 640 641 643 645 646 648 650 652 654 655 656 657 658 659 661 663 665 667 668 670 672 674 676 678 680 681 683 684 686 688 690 692 694 696 698 699 702 703 706 708 710 711 713 714 715 716 717 718 719 721 722 723 725 726
643 641 640 639 640 640 641 642 643 643 641 637 635 635 637 638 640 642 643 645 647 648 650 652 654 655 656 657 658 659 662 664 666 667 669 670 672 674 676 678 679 681 683 684 686 688 690 692 694 696 698 700 702 704 706 708 710 711 713 713 714 715 716 718 719 721 722 723 724
643 641 640 639 639 639 640 641 642 643 642 638 635 634 636 637 638 640 642 644 646 647 649 650 652 654 655 656 657 658 660 663 664 666 668 669 670 672 674 676 677 679 681 683 685 687 688 690 693 694 696 698 700 703 704 707 708 710 711 712 713 713 715 716 718 719 720 721 723
643 641 640 639 638 638 639 640 641 641 641 639 635 633 634 635 637 639 640 642 644 646 647 648 650 653 654 655 656 658 659 661 663 664 666 667 668 670 672 673 675 677 679 681 683 685 687 689 691 693 695 697 699 701 703 705 707 708 709 710 711 712 713 715 716 717 718 720 721
642 641 640 639 638 638 638 639 640 640 640 639 635 633 632 633 635 637 639 641 642 644 646 647 649 651 653 654 656 657 658 659 661 662 664 665 667 668 670 672 674 676 678 679 681 683 686 688 690 692 694 696 698 700 702 703 705 706 708 709 710 711 712 713 715 716 717 718 719
643 641 639 638 638 638 638 639 639 640 639 638 635 632 631 632 634 636 638 639 641 643 644 646 648 650 652 653 654 656 657 658 659 661 662 663 665 667 669 671 673 675 676 678 680 682 685 687 689 691 693 695 697 699 700 702 703 704 706 707 709 710 711 713 714 715 716 716 717
643 642 640 638 637 636 636 637 638 639 639 638 635 632 631 632 633 634 636 638 640 642 643 645 647 649 650 652 653 654 656 657 658 660 661 663 664 666 668 669 672 673 675 677 679 681 683 685 687 689 691 693 695 697 698 700 702 703 705 706 708 709 710 711 713 713 714 715 716
643 642 641 639 637 635 634 635 636 638 638 638 635 633 631 631 632 633 635 637 639 641 643 644 646 648 649 651 652 653 655 656 658 660 661 662 663 664 666 668 670 672 673 676 678 680 682 683 686 688 689 691 693 695 697 698 700 702 703 705 706 708 709 710 711 712 713 714 715
643 642 640 639 637 635 633 633 633 635 637 638 636 633 631 631 632 633 634 636 638 640 642 643 645 647 648 650 651 653 654 655 657 659 660 661 662 663 665 666 668 670 673 675 677 678 680 682 684 686 688 690 692 693 695 697 698 700 702 704 705 706 708 708 710 711 712 712 713
643 641 640 638 637 635 633 631 632 634 636 637 637 634 632 631 632 633 634 635 637 638 640 642 644 646 647 649 650 652 653 653 655 658 659 661 662 663 664 666 668 670 672 674 675 677 679 681 683 684 686 688 690 692 694 696 698 699 701 703 704 705 706 707 708 709 710 711 712
642 641 639 638 637 635 633 633 634 636 637 637 636 634 632 631 631 632 633 634 636 637 639 641 643 645 647 648 649 650 651 652 653 656 658 661 662 663 664 666 668 670 671 673 674 676 678 679 681 683 685 687 689 691 693 695 696 698 699 701 702 703 705 706 707 708 708 710 711
642 640 639 638 637 635 634 634 635 636 636 636 636 634 632 630 630 631 632 633 634 636 638 640 642 644 645 647 648 649 649 650 653 655 658 661 663 663 664 666 668 669 670 671 673 674 676 678 680 682 684 687 688 690 692 694 695 697 698 699 701 702 703 704 705 706 708 709 710
642 640 638 637 636 635 634 633 634 635 635 635 635 633 631 629 629 630 631 632 633 635 637 640 642 643 644 645 646 647 648 650 652 655 658 660 662 663 663 665 666 668 669 670 672 673 675 677 679 681 683 686 688 690 692 693 694 695 697 698 699 701 702 703 704 706 707 708 709
641 639 638 637 636 635 634 633 632 633 634 634 634 632 629 627 627 628 629 631 632 634 637 639 641 642 643 644 645 647 648 650 653 655 658 660 661 662 663 663 665 666 668 669 671 673 675 677 678 681 683 685 687 689 690 692 693 695 696 698 698 700 701 703 704 705 706 707 708
641 639 638 636 635 634 633 632 631 632 633 633 633 631 629 626 626 627 628 630 631 633 636 638 640 641 642 643 645 647 649 651 653 655 657 658 660 661 662 663 664 665 667 668 670 673 674 677 678 681 683 685 687 689 690 692 693 695 697 698 699 700 701 702 703 704 705 707 708
641 639 637 635 634 633 632 632 631 631 632 632 632 631 629 626 625 625 627 628 630 633 635 637 638 639 641 643 645 647 649 652 653 655 657 658 660 662 662 663 663 665 667 669 671 673 675 677 679 681 683 686 687 688 690 691 693 694 695 697 698 698 700 701 703 704 705 706 707
641 639 637 635 633 632 631 630 629 629 630 631 630 630 628 625 623 624 626 628 629 631 633 635 637 638 641 643 646 648 650 652 654 655 657 659 661 661 662 662 663 665 667 669 671 673 674 676 678 680 682 683 684 685 687 688 690 692 693 695 696 698 699 700 701 702 703 705 707
640 638 637 634 633 631 629 628 628 628 629 630 630 629 628 624 622 623 624 626 628 630 632 633 636 638 641 644 646 648 650 652 654 656 657 658 658 659 660 661 663 665 667 669 671 672 673 675 677 678 680 682 683 685 687 689 690 692 693 695 697 698 699 700 701 702 703 704 705
640 638 636 634 632 630 628 627 626 627 628 629 629 628 627 623 621 621 623 625 627 629 631 633 636 639 643 645 646 648 649 652 653 655 656 657 658 659 660 661 663 665 667 668 669 671 673 674 676 677 679 681 683 685 687 688 690 692 694 696 698 699 700 701 702 702 703 704 704
639 637 636 633 631 629 627 626 625 626 627 628 628 628 626 623 620 621 623 626 628 630 632 634 638 641 643 644 644 645 647 650 652 654 656 657 658 659 660 662 664 666 666 668 669 670 672 673 675 677 678 680 683 685 687 689 691 693 695 697 698 700 701 702 702 703 703 704 704
638 636 634 633 630 628 626 624 624 625 626 627 627 626 625 623 621 621 624 627 629 631 633 635 638 641 642 642 642 643 646 649 652 654 656 657 658 660 661 663 666 667 667 667 668 670 671 673 674 676 678 680 683 685 688 689 692 694 696 698 699 701 702 703 703 704 704 705 705
637 635 633 631 629 627 625 623 623 624 624 624 624 626 626 623 621 621 624 627 628 631 635 638 640 641 641 640 642 644 647 650 653 655 657 658 659 661 663 665 668 668 668 668 668 670 671 673 674 676 678 680 683 686 688 690 693 695 697 698 700 702 703 704 705 705 706 706 706
635 633 632 630 628 625 623 622 622 622 622 621 624 628 629 623 621 622 625 627 629 633 637 640 640 640 639 641 643 647 650 652 654 656 658 659 660 662 664 667 669 670 670 669 669 670 671 673 674 676 678 680 683 687 689 691 694 696 698 699 701 703 704 705 707 707 708 708 709
633 631 629 628 626 623 621 620 620 620 620 620 624 629 629 623 622 623 625 627 630 635 638 640 639 638 638 641 646 650 653 654 656 658 660 661 661 663 665 668 671 672 672 672 672 672 672 673 674 676 678 681 684 687 690 693 695 697 699 701 703 705 707 708 709 710 710 711 711
630 628 627 625 623 622 620 620 620 619 619 620 625 628 628 625 624 625 626 627 631 635 638 639 637 637 639 643 647 652 655 657 658 660 662 663 663 664 666 669 671 673 674 674 674 673 674 674 675 676 678 681 685 688 690 693 696 698 701 703 706 708 709 710 711 712 713 714 714
628 626 624 623 622 621 620 620 620 619 619 621 626 628 629 628 628 628 629 629 631 634 637 637 636 638 640 644 648 653 657 658 660 661 663 665 666 667 668 669 673 675 676 676 676 675 676 676 677 678 679 682 685 688 691 694 697 700 703 705 707 709 711 713 714 715 716 717 718
626 624 622 621 620 620 620 621 621 620 621 623 626 629 631 632 633 633 632 631 632 633 635 634 635 638 641 645 649 654 657 660 662 664 665 667 668 669 670 671 674 677 678 678 678 678 678 678 678 679 681 683 686 689 691 694 697 701 704 707 709 711 713 715 716 718 719 720 721
623 621 619 619 618 619 620 621 622 623 624 626 628 630 632 635 637 637 636 634 634 634 634 634 636 639 643 646 651 654 658 662 665 667 668 669 670 672 673 674 676 678 680 680 680 680 680 681 681 682 683 685 688 690 692 694 698 702 705 708 710 712 715 717 719 720 722 723 724